EW5923 Weather Reports


Display with metric or nautical units.
time (UTC)temp
F
wind
direction
speed
MPH
gust
MPH
rain 1hr
in
rain 24hr
in
rain mn
in
humidity
%
barometer
mb
20260506185142 76 2 8.0 16.0 0.00 0.00 0.00 26 1015.6
20260506184121 74 357 6.0 12.0 0.00 0.00 0.00 27 1015.6
20260506183122 74 351 5.0 9.0 0.00 0.00 0.00 27 1015.7
20260506182122 75 354 7.0 11.0 0.00 0.00 0.00 27 1015.9
20260506181122 74 359 4.0 8.0 0.00 0.00 0.00 28 1015.8
20260506180122 74 359 6.0 12.0 0.00 0.00 0.00 28 1016.0
20260506175122 72 351 4.0 6.0 0.00 0.00 0.00 30 1016.1
20260506174122 73 357 5.0 9.0 0.00 0.00 0.00 30 1016.2
20260506173125 73 352 5.0 9.0 0.00 0.00 0.00 30 1016.2
20260506172122 71 299 3.0 8.0 0.00 0.00 0.00 32 1016.1
20260506171121 72 345 4.0 8.0 0.00 0.00 0.00 31 1016.2
20260506170122 71 355 3.0 8.0 0.00 0.00 0.00 33 1016.1
20260506165121 71 354 5.0 10.0 0.00 0.00 0.00 33 1016.1
20260506164439 70 351 4.0 8.0 0.00 0.00 0.00 33 1016.1
20260506162142 69 347 2.0 9.0 0.00 0.00 0.00 34 1015.9
20260506161122 69 358 4.0 8.0 0.00 0.00 0.00 34 1016.1
20260506160143 69 338 1.0 4.0 0.00 0.00 0.00 35 1016.0
20260506155122 68 359 4.0 8.0 0.00 0.00 0.00 36 1016.1
20260506154122 68 353 2.0 5.0 0.00 0.00 0.00 37 1016.0
20260506153122 67 358 3.0 6.0 0.00 0.00 0.00 38 1016.0
20260506152122 66 3 1.0 3.0 0.00 0.00 0.00 38 1016.1
20260506151143 67 17 2.0 4.0 0.00 0.00 0.00 38 1016.1
20260506150123 67 20 1.0 4.0 0.00 0.00 0.00 39 1016.2
20260506145122 65 6 2.0 4.0 0.00 0.00 0.00 40 1016.0
20260506144121 65 22 3.0 5.0 0.00 0.00 0.00 40 1016.1
20260506143122 64 61 3.0 4.0 0.00 0.00 0.00 41 1016.0
20260506142122 63 12 3.0 6.0 0.00 0.00 0.00 42 1015.8
20260506141122 63 20 3.0 5.0 0.00 0.00 0.00 43 1015.9
20260506140122 62 16 2.0 3.0 0.00 0.00 0.00 44 1015.7
20260506135122 61 54 1.0 3.0 0.00 0.00 0.00 47 1015.5
20260506134122 60 41 1.0 2.0 0.00 0.00 0.00 48 1015.4
20260506133143 58 5 2.0 3.0 0.00 0.00 0.00 49 1015.4
20260506132122 56 8 3.0 4.0 0.00 0.00 0.00 51 1015.3
20260506131122 54 13 3.0 4.0 0.00 0.00 0.00 53 1015.1
20260506130122 53 360 0.0 0.0 0.00 0.00 0.00 54 1015.0
20260506125122 54 59 1.0 3.0 0.00 0.00 0.00 53 1014.9
20260506124122 53 5 2.0 4.0 0.00 0.00 0.00 53 1014.8
20260506123122 52 8 3.0 4.0 0.00 0.00 0.00 53 1014.6
20260506122122 52 12 3.0 4.0 0.00 0.00 0.00 53 1014.4
20260506121122 52 360 3.0 4.0 0.00 0.00 0.00 53 1014.4
20260506120122 52 357 2.0 3.0 0.00 0.00 0.00 53 1014.3
20260506115122 52 360 2.0 3.0 0.00 0.00 0.00 53 1014.2
20260506114122 52 358 3.0 4.0 0.00 0.00 0.00 54 1014.2
20260506113122 52 347 2.0 3.0 0.00 0.00 0.00 53 1014.3
20260506112122 53 360 1.0 2.0 0.00 0.00 0.00 53 1014.1
20260506111122 54 345 0.0 1.0 0.00 0.00 0.00 52 1014.1
20260506110122 53 349 2.0 3.0 0.00 0.00 0.00 52 1014.0
20260506105122 53 360 2.0 3.0 0.00 0.00 0.00 53 1014.1
20260506104122 53 360 3.0 3.0 0.00 0.00 0.00 51 1013.9
20260506103122 54 360 3.0 3.0 0.00 0.00 0.00 50 1013.8
20260506102122 54 360 1.0 2.0 0.00 0.00 0.00 49 1013.7
20260506101122 54 360 2.0 2.0 0.00 0.00 0.00 49 1013.6
20260506100143 54 360 2.0 2.0 0.00 0.00 0.00 49 1013.5
20260506095143 55 360 2.0 3.0 0.00 0.00 0.00 49 1013.4
20260506094143 55 360 2.0 3.0 0.00 0.00 0.00 49 1013.5
20260506093122 55 355 2.0 3.0 0.00 0.00 0.00 48 1013.5
20260506092122 56 360 1.0 2.0 0.00 0.00 0.00 47 1013.4
20260506091143 56 360 1.0 2.0 0.00 0.00 0.00 46 1013.3
20260506090122 56 360 2.0 3.0 0.00 0.00 0.00 47 1013.2
20260506085122 56 360 0.0 0.0 0.00 0.00 0.00 45 1013.3
20260506084122 57 360 1.0 2.0 0.00 0.00 0.00 44 1013.2
20260506083122 57 359 2.0 3.0 0.00 0.00 0.00 45 1013.2
20260506082122 57 353 2.0 3.0 0.00 0.00 0.00 44 1013.2
20260506081122 57 360 1.0 2.0 0.00 0.00 0.00 43 1013.1
20260506080123 57 360 2.0 3.0 0.00 0.00 0.00 43 1013.0
20260506073143 58 358 2.0 3.0 0.00 0.00 0.00 41 1013.1
20260506072122 59 360 3.0 4.0 0.00 0.00 0.00 41 1013.1
20260506071143 58 360 3.0 4.0 0.00 0.00 0.00 41 1012.9
20260506070122 58 360 2.0 3.0 0.00 0.00 0.00 41 1012.9
20260506062123 62 360 2.0 4.0 0.00 0.00 0.00 37 1012.7
20260506061122 61 360 3.0 4.0 0.00 0.00 0.00 37 1012.8
20260506060121 60 360 2.0 3.0 0.00 0.00 0.00 38 1012.8
20260506051122 63 360 1.0 2.0 0.00 0.00 0.00 34 1012.5
20260506050121 64 355 2.0 3.0 0.00 0.00 0.00 33 1012.3
20260506045121 65 360 2.0 3.0 0.00 0.00 0.00 32 1012.1
20260506044121 66 360 2.0 4.0 0.00 0.00 0.00 32 1012.1
20260506043121 67 360 2.0 4.0 0.00 0.00 0.00 31 1012.0
20260506042143 68 359 4.0 6.0 0.00 0.00 0.00 30 1011.9
20260506041121 69 360 4.0 8.0 0.00 0.00 0.00 29 1011.9
20260506040121 69 358 4.0 6.0 0.00 0.00 0.00 29 1011.8
20260506035121 69 358 3.0 6.0 0.00 0.00 0.00 29 1011.5
20260506034121 70 357 3.0 6.0 0.00 0.00 0.00 29 1011.5
20260506033121 70 358 4.0 8.0 0.00 0.00 0.00 29 1011.4
20260506032121 70 358 6.0 11.0 0.00 0.00 0.00 29 1011.2
20260506031142 71 356 6.0 12.0 0.00 0.00 0.00 28 1011.0
20260506030122 71 359 7.0 11.0 0.00 0.00 0.00 28 1010.9
20260506025121 71 359 8.0 13.0 0.00 0.00 0.00 28 1010.7
20260506024121 72 358 9.0 15.0 0.00 0.00 0.00 27 1010.6
20260506023121 72 358 10.0 14.0 0.00 0.00 0.00 27 1010.6
20260506022123 72 359 7.0 14.0 0.00 0.00 0.00 26 1010.3
20260506021122 72 358 9.0 13.0 0.00 0.00 0.00 26 1010.1
20260506020144 73 360 9.0 14.0 0.00 0.00 0.00 27 1010.0
20260506015122 73 360 11.0 15.0 0.00 0.00 0.00 26 1010.1
20260506014122 73 359 8.0 14.0 0.00 0.00 0.00 27 1009.9
20260506013122 73 360 7.0 14.0 0.00 0.00 0.00 27 1009.8
20260506012123 74 360 7.0 17.0 0.00 0.00 0.00 27 1009.7
20260506011123 74 360 10.0 20.0 0.00 0.00 0.00 27 1009.7
20260506010122 73 358 5.0 12.0 0.00 0.00 0.00 27 1009.4
20260506005122 73 359 10.0 17.0 0.00 0.00 0.00 27 1009.6
20260506004122 74 358 10.0 20.0 0.00 0.00 0.00 25 1009.5
20260506003143 75 354 8.0 17.0 0.00 0.00 0.00 26 1009.3
20260506002122 74 360 11.0 17.0 0.00 0.00 0.00 26 1009.3
20260506001122 75 359 12.0 19.0 0.00 0.00 0.00 26 1009.3
20260506000122 75 359 12.0 19.0 0.00 0.00 0.00 26 1009.2
20260505235122 74 359 11.0 20.0 0.00 0.00 0.00 27 1009.2
20260505234143 75 356 8.0 14.0 0.00 0.00 0.00 26 1009.0
20260505233122 75 359 12.0 17.0 0.00 0.00 0.00 26 1009.0
20260505232122 76 359 7.0 12.0 0.00 0.00 0.00 27 1008.8
20260505231143 77 359 10.0 16.0 0.00 0.00 0.00 25 1008.9
20260505230122 76 360 12.0 18.0 0.00 0.00 0.00 25 1008.9
20260505225122 77 357 13.0 21.0 0.00 0.00 0.00 25 1009.0
20260505224122 77 360 10.0 19.0 0.00 0.00 0.00 25 1008.9
20260505223143 76 359 12.0 22.0 0.00 0.00 0.00 26 1009.2
20260505222122 76 360 9.0 18.0 0.00 0.00 0.00 27 1009.2
20260505221121 76 359 11.0 19.0 0.00 0.00 0.00 28 1009.4
20260505220142 75 359 10.0 14.0 0.00 0.00 0.00 30 1009.4
20260505215121 77 360 11.0 20.0 0.00 0.00 0.00 29 1009.3
20260505214142 76 359 12.0 20.0 0.00 0.00 0.00 30 1009.5
20260505213121 74 360 10.0 17.0 0.00 0.00 0.00 32 1009.6
20260505212121 76 360 9.0 14.0 0.00 0.00 0.00 31 1009.7
20260505211121 74 358 5.0 11.0 0.00 0.00 0.00 35 1009.9
20260505210122 75 359 10.0 20.0 0.00 0.00 0.00 34 1010.0
20260505205121 76 359 12.0 17.0 0.00 0.00 0.00 33 1010.1
20260505204121 75 359 8.0 13.0 0.00 0.00 0.00 36 1010.2
20260505203142 74 359 11.0 16.0 0.00 0.00 0.00 37 1010.3
20260505202121 75 358 7.0 13.0 0.00 0.00 0.00 37 1010.3
20260505201122 73 360 9.0 14.0 0.00 0.00 0.00 39 1010.4
20260505200121 73 359 9.0 16.0 0.00 0.00 0.00 39 1010.4
20260505195121 75 359 8.0 15.0 0.00 0.00 0.00 37 1010.4
20260505194121 74 357 11.0 19.0 0.00 0.00 0.00 38 1010.5
20260505193122 73 359 9.0 15.0 0.00 0.00 0.00 39 1010.6
20260505192143 74 359 9.0 15.0 0.00 0.00 0.00 39 1010.8
20260505191142 73 359 9.0 17.0 0.00 0.00 0.00 40 1010.8
20260505190121 72 358 8.0 19.0 0.00 0.00 0.00 42 1011.1